Tracking 18980 objects as of 23-Feb-2018
HD Live streaming from Space Station
objects crossing your sky now

FENGYUN 1C DEB

Track FENGYUN 1C DEB now!
10-day predictions


NORAD ID: 31952
Int'l Code: 1999-025CND
Perigee: 655.2 km
Apogee: 840.6 km
Inclination: 98.9 °
Period: 99.6 minutes
Semi major axis: 7118 km
RCS: 0.0137 m2 (small)
Launch date: May 10, 1999
Source: People's Republic of China (PRC)
Launch site: Taiyaun Space Center, China (TSC)

Note: This is SATELLITE DEBRIS
aabbcc
Your satellite tracking list
Your tracking list is empty




NASA's NSSDC Master Catalog

Two Line Element Set (TLE):
1 31952U 99025CND 18053.68811335 +.00000143 +00000-0 +50783-4 0  9992
2 31952 098.9454 319.3859 0130181 169.2889 191.1122 14.45378253559835
Source of the keplerian elements: AFSPC